Tracking 17925 objects as of 20-January-2017
HD Live streaming from Space Station
objects crossing your sky now

AMAZONAS 2


AMAZONAS 2 is classified as:


NORAD ID: 35942
Int'l Code: 2009-054A
Launch date: September 30, 2009
Source: Spain (SPN)
Launch site: FRENCH GUIANA (FRGUI)

Amazonas 2 was built by Astrium based on its Eurostar E3000 satellite bus, for on-orbit delivery in 2009. Amazonas 2 will be operated from at 61° West, providing relay services with 54 Ku band and 10 C band transponders.
Your satellite tracking list
Your tracking list is empty





NASA's NSSDC Master Catalog

Two Line Element Set (TLE):
1 35942U 09054A   17019.27071484 -.00000289  00000-0  00000+0 0  9991
2 35942   0.0307 140.3926 0001021  98.5752 276.3394  1.00272188 26731
Source of the keplerian elements: AFSPC